Reading, PA

8:32 PM EST on December 12, 2019 (GMT -0500)
Reading Regional-Spaatz

Weather History for KRDG - August, 2019

Change the Weather History Date:

Tuesday, August 13, 2019

  Actual Average Record
Temperature  
Mean Temperature 77 °F 74 °F  
Max Temperature 80 °F 84 °F 100 °F (1944)
Min Temperature 73 °F 63 °F 39 °F (1888)
Degree Days  
Heating Degree Days 0 0  
Month to date heating degree days 0 0  
Since 1 June heating degree days 16 25  
Since 1 July heating degree days 0 1  
Cooling Degree Days 12 9  
Month to date cooling degree days 147 117  
Year to date cooling degree days 885 669  
Since 1 June cooling degree days 780 609  
Growing Degree Days 26 (Base 50)    
Moisture  
Dew Point 71 °F    
Average Humidity 87    
Maximum Humidity 100    
Minimum Humidity 74    
Precipitation  
Precipitation T in 0.11 in 3.25 in (1875)
Month to date precipitation 0.86 1.50  
Year to date precipitation 39.15 26.82  
Sea Level Pressure  
Sea Level Pressure 29.81 in    
Wind  
Wind Speed 4 mph (SSW)    
Max Wind Speed 10 mph    
Max Gust Speed 14 mph    
Visibility 10 miles    
Events Rain    
T = Trace of Precipitation, MM = Missing Value Source: NWS Daily Summary

Daily Weather History Graph

Daily Weather History Graph

Search for Another Location

Airport or City:

Astronomy

Aug. 13, 2019 Rise Set
Actual Time 6:12 AM EDT 8:04 PM EDT
Civil Twilight 5:43 AM EDT 8:33 PM EDT
Nautical Twilight 5:07 AM EDT 9:09 PM EDT
Astronomical Twilight 4:28 AM EDT 9:47 PM EDT
Moon 7:17 PM EDT 4:12 AM EDT
Length of Visible Light 14h 50m
Length of Day
13h 51m
Waxing Gibbous, 97% of the Moon is Illuminated
Aug 13
Waxing Gibbous
Aug 15
Full
Aug 23
Last Quarter
Aug 30
New
Sep 5
First Quarter

Hourly Weather History & Observations

Time (EDT) Temp. Heat Index Dew Point Humidity Pressure Visibility Wind Dir Wind Speed Gust Speed Precip Events Conditions
12:54 AM 75.9 °F - 70.0 °F 82% 29.87 in 10.0 mi SE 4.6 mph - N/A   Overcast
1:54 AM 77.0 °F - 71.1 °F 82% 29.84 in 10.0 mi Calm Calm - N/A   Partly Cloudy
2:54 AM 77.0 °F - 71.1 °F 82% 29.83 in 10.0 mi South 4.6 mph - N/A   Scattered Clouds
3:54 AM 75.9 °F - 71.1 °F 85% 29.82 in 10.0 mi SSW 4.6 mph - N/A   Scattered Clouds
4:54 AM 75.9 °F - 71.1 °F 85% 29.81 in 10.0 mi South 4.6 mph - N/A   Clear
5:54 AM 75.0 °F - 70.0 °F 84% 29.82 in 10.0 mi South 5.8 mph - N/A   Mostly Cloudy
6:54 AM 75.0 °F - 70.0 °F 84% 29.82 in 10.0 mi SSW 3.5 mph - N/A   Mostly Cloudy
7:54 AM 75.0 °F - 70.0 °F 84% 29.83 in 10.0 mi SSW 3.5 mph - N/A   Mostly Cloudy
8:54 AM 75.0 °F - 72.0 °F 90% 29.83 in 10.0 mi WNW 8.1 mph - 0.00 in   Overcast
9:54 AM 75.0 °F - 72.0 °F 90% 29.86 in 10.0 mi SSW 5.8 mph - N/A   Overcast
10:54 AM 75.0 °F - 72.0 °F 90% 29.83 in 10.0 mi NNE 6.9 mph - 0.00 in   Overcast
11:54 AM 75.9 °F - 70.0 °F 82% 29.83 in 10.0 mi NE 3.5 mph - N/A   Overcast
12:54 PM 78.1 °F - 70.0 °F 76% 29.82 in 10.0 mi South 4.6 mph - N/A   Overcast
1:54 PM 78.1 °F - 71.1 °F 79% 29.81 in 10.0 mi West 4.6 mph - N/A   Overcast
2:54 PM 79.0 °F - 71.1 °F 77% 29.79 in 10.0 mi WSW 5.8 mph - N/A   Overcast
3:54 PM 80.1 °F 83.6 °F 71.1 °F 74% 29.78 in 10.0 mi West 3.5 mph - N/A   Overcast
4:54 PM 80.1 °F 83.6 °F 71.1 °F 74% 29.77 in 10.0 mi SSW 4.6 mph - N/A   Overcast
5:54 PM 78.1 °F - 70.0 °F 76% 29.78 in 10.0 mi SSW 4.6 mph - 0.00 in Rain Light Rain
6:28 PM 75.9 °F - 72.0 °F 87% 29.77 in 10.0 mi SSW 6.9 mph - 0.00 in Rain Light Rain
6:54 PM 75.9 °F - 73.0 °F 91% 29.78 in 10.0 mi SW 4.6 mph - 0.00 in   Overcast
7:54 PM 75.0 °F - 72.0 °F 90% 29.78 in 6.0 mi Calm Calm - N/A   Overcast
8:54 PM 73.9 °F - 73.0 °F 97% 29.79 in 10.0 mi Calm Calm - N/A   Overcast
9:54 PM 73.9 °F - 72.0 °F 93% 29.80 in 10.0 mi Calm Calm - 0.00 in Rain Light Rain
10:54 PM 73.9 °F - 73.0 °F 97% 29.80 in 10.0 mi Calm Calm - 0.00 in   Scattered Clouds
11:54 PM 73.0 °F - 73.0 °F 100% 29.80 in 10.0 mi Calm Calm - N/A   Mostly Cloudy